Date String (YYYY-MM-DD hh:mm:ss) UTC,Instrument flags,Ambient pressure (hPa),Sample flow (lpm),Bypass flow (lpm),Sample temperature (°C),Ambient temperature (°C),ASC tube jacket temperature (°C),LED temperature (°C),Box temperature (°C),Sample RH (%),Span deviation,Mass concentration (μg/m³),Mass concentration (μg/m³),Mass concentration (μg/m³)
DateTimeUTC,F1_M11,P_M11,Q1_M11,Q2_M11,T1_M11,T2_M11,T3_M11,T4_M11,T5_M11,U1_M11,ZSPAN_M11,X2_M11,X0_M11,X1_M11
2022-01-10 12:00:00,,0838.9,5.00,0.00,21.9,21.1,00.0,31.1,23.5,06.4,0000.0,0000.64,0000.95,0000.51
2022-01-10 12:01:00,,0838.9,4.99,0.00,21.9,21.1,00.0,31.1,23.4,06.4,0000.0,0000.67,0001.01,0000.52
2022-01-10 12:02:00,,0838.9,5.01,0.00,21.8,21.1,00.0,31.1,23.4,06.3,0000.0,0000.66,0000.99,0000.52
2022-01-10 12:03:00,,0838.9,5.01,0.00,21.8,21.0,00.0,31.0,23.4,06.3,0000.0,0000.66,0000.99,0000.52
2022-01-10 12:04:00,,0838.9,5.00,0.00,21.8,20.9,00.0,31.0,23.3,06.3,0000.0,0000.66,0001.00,0000.52
2022-01-10 12:05:00,,0838.9,4.99,0.00,21.7,21.0,00.0,31.0,23.3,06.3,0000.0,0000.62,0000.92,0000.50
2022-01-10 12:06:00,,0838.9,5.00,0.00,21.8,21.6,00.0,31.0,23.5,06.3,0000.0,0000.59,0000.86,0000.48
2022-01-10 12:07:00,,0838.9,5.01,0.00,22.0,22.5,00.0,31.0,23.8,06.2,0000.0,0000.56,0000.82,0000.46
2022-01-10 12:08:00,,0838.8,5.00,0.00,22.1,23.0,00.0,31.1,24.1,06.1,0000.0,0000.55,0000.81,0000.45
2022-01-10 12:09:00,,0838.8,4.99,0.00,22.2,22.7,00.0,31.1,24.0,06.0,0000.0,0000.52,0000.76,0000.44
2022-01-10 12:10:00,,0838.9,5.00,0.00,22.1,22.4,00.0,31.1,23.9,05.8,0000.0,0000.48,0000.66,0000.41
2022-01-10 12:11:00,,0838.8,5.00,0.00,22.1,22.1,00.0,31.1,23.7,05.9,0000.0,0000.45,0000.60,0000.40
2022-01-10 12:12:00,,0838.9,5.00,0.00,22.0,21.8,00.0,31.1,23.6,06.0,0000.0,0000.41,0000.52,0000.37
2022-01-10 12:13:00,,0838.9,4.99,0.00,22.0,21.6,00.0,31.1,23.6,06.0,0000.0,0000.38,0000.47,0000.36
2022-01-10 12:14:00,,0838.9,5.01,0.00,21.9,21.4,00.0,31.0,23.5,05.9,0000.0,0000.36,0000.46,0000.34
2022-01-10 12:15:00,,0838.9,5.00,0.00,21.9,21.3,00.0,31.0,23.4,05.9,0000.0,0000.34,0000.43,0000.32
2022-01-10 12:16:00,,0838.9,5.00,0.00,21.8,21.2,00.0,31.0,23.4,05.9,0000.0,0000.33,0000.42,0000.31
2022-01-10 12:17:00,,0838.9,5.00,0.00,21.8,21.1,00.0,31.0,23.4,05.9,0000.0,0000.32,0000.41,0000.29
2022-01-10 12:18:00,,0838.8,5.00,0.00,21.8,21.1,00.0,31.0,23.4,05.9,0000.0,0000.30,0000.39,0000.28
2022-01-10 12:19:00,,0838.8,5.01,0.00,21.8,21.1,00.0,31.0,23.4,05.9,0000.0,0000.28,0000.36,0000.26
2022-01-10 12:20:00,,0838.8,4.99,0.00,21.8,21.1,00.0,31.0,23.5,05.9,0000.0,0000.27,0000.35,0000.24
2022-01-10 12:21:00,,0838.8,5.00,0.00,21.8,21.1,00.0,30.9,23.5,05.9,0000.0,0000.26,0000.34,0000.24
2022-01-10 12:22:00,,0838.9,4.99,0.00,21.8,21.1,00.0,30.9,23.5,06.0,0000.0,0000.25,0000.33,0000.23
2022-01-10 12:23:00,,0838.9,5.01,0.00,21.8,21.1,00.0,30.9,23.5,06.0,0000.0,0000.26,0000.35,0000.23
2022-01-10 12:24:00,,0838.9,4.99,0.00,21.8,21.1,00.0,30.9,23.5,06.0,0000.0,0000.25,0000.34,0000.23
2022-01-10 12:25:00,,0838.9,5.00,0.00,21.9,21.7,00.0,30.9,23.6,06.1,0000.0,0000.25,0000.31,0000.23
2022-01-10 12:26:00,,0838.9,5.01,0.00,22.0,22.5,00.0,31.0,23.8,06.1,0000.0,0000.25,0000.31,0000.24
2022-01-10 12:27:00,,0838.9,4.99,0.00,22.1,23.0,00.0,31.0,24.1,06.4,0000.0,0000.25,0000.31,0000.24
2022-01-10 12:28:00,,0839.0,5.01,0.00,22.2,22.9,00.0,31.0,24.1,06.4,0000.0,0000.27,0000.32,0000.25
2022-01-10 12:29:00,,0839.0,5.00,0.00,22.2,22.6,00.0,31.1,24.1,06.3,0000.0,0000.28,0000.34,0000.27
2022-01-10 12:30:00,,0838.9,4.99,0.00,22.2,22.3,00.0,31.1,24.0,06.3,0000.0,0000.30,0000.36,0000.28
2022-01-10 12:31:00,,0838.9,5.01,0.00,22.2,22.1,00.0,31.1,24.0,06.3,0000.0,0000.31,0000.37,0000.29
2022-01-10 12:32:00,,0838.9,5.00,0.00,22.2,22.0,00.0,31.1,23.9,06.4,0000.0,0000.31,0000.37,0000.30
2022-01-10 12:33:00,,0838.9,5.00,0.00,22.2,21.9,00.0,31.1,23.9,06.3,0000.0,0000.32,0000.38,0000.30
2022-01-10 12:34:00,,0838.9,5.01,0.00,22.2,21.8,00.0,31.1,23.9,06.3,0000.0,0000.32,0000.38,0000.29
2022-01-10 12:35:00,,0839.0,4.99,0.00,22.2,21.7,00.0,31.1,23.9,06.2,0000.0,0000.31,0000.37,0000.28
2022-01-10 12:36:00,,0838.9,5.00,0.00,22.1,21.6,00.0,31.1,23.8,06.3,0000.0,0000.30,0000.36,0000.27
2022-01-10 12:37:00,,0839.0,4.99,0.00,22.1,21.6,00.0,31.1,23.8,06.3,0000.0,0000.29,0000.35,0000.26
2022-01-10 12:38:00,,0839.0,5.00,0.00,22.1,21.5,00.0,31.1,23.8,06.3,0000.0,0000.28,0000.35,0000.25
2022-01-10 12:39:00,,0838.9,5.01,0.00,22.1,21.5,00.0,31.1,23.8,06.3,0000.0,0000.27,0000.33,0000.24
2022-01-10 12:40:00,,0838.9,4.99,0.00,22.1,21.5,00.0,31.1,23.8,06.3,0000.0,0000.24,0000.31,0000.21
2022-01-10 12:41:00,,0838.9,5.00,0.00,22.0,21.4,00.0,31.1,23.7,06.6,0000.0,0000.22,0000.28,0000.19
2022-01-10 12:42:00,,0839.0,5.00,0.00,22.0,21.4,00.0,31.1,23.7,07.0,0000.0,0000.20,0000.26,0000.17
2022-01-10 12:43:00,,0839.0,5.00,0.00,22.0,21.4,00.0,31.1,23.7,07.2,0000.0,0000.19,0000.24,0000.16
2022-01-10 12:44:00,,0839.0,5.01,0.00,22.0,21.4,00.0,31.1,23.8,07.3,0000.0,0000.17,0000.21,0000.15
2022-01-10 12:45:00,,0839.0,4.99,0.00,22.0,21.4,00.0,31.1,23.8,07.4,0000.0,0000.15,0000.19,0000.14
2022-01-10 12:46:00,,0839.0,5.02,0.00,22.0,21.4,00.0,31.1,23.8,07.3,0000.0,0000.15,0000.18,0000.14
2022-01-10 12:47:00,,0839.0,5.01,0.00,22.0,21.4,00.0,31.0,23.8,07.2,0000.0,0000.14,0000.18,0000.14
2022-01-10 12:48:00,,0839.0,4.99,0.00,22.0,21.4,00.0,31.0,23.8,07.2,0000.0,0000.14,0000.17,0000.14
2022-01-10 12:49:00,,0839.0,5.00,0.00,22.1,21.8,00.0,31.1,23.9,07.2,0000.0,0000.14,0000.17,0000.14
2022-01-10 12:50:00,,0839.0,5.01,0.00,22.2,22.6,00.0,31.1,24.1,07.3,0000.0,0000.15,0000.18,0000.14
2022-01-10 12:51:00,,0839.0,5.00,0.00,22.4,23.2,00.0,31.2,24.4,06.9,0000.0,0000.16,0000.30,0000.14
2022-01-10 12:52:00,,0839.0,5.00,0.00,22.4,23.1,00.0,31.2,24.4,06.7,0000.0,0000.16,0000.35,0000.14
2022-01-10 12:53:00,,0839.0,5.00,0.00,22.4,22.8,00.0,31.2,24.3,06.4,0000.0,0000.18,0001.23,0000.15
2022-01-10 12:54:00,,0839.0,5.00,0.00,22.4,22.5,00.0,31.2,24.2,06.2,0000.0,0000.21,0001.27,0000.16
2022-01-10 12:55:00,,0839.0,5.00,0.00,22.4,22.3,00.0,31.3,24.2,06.2,0000.0,0000.23,0001.31,0000.16
2022-01-10 12:56:00,,0839.0,5.01,0.00,22.4,22.1,00.0,31.3,24.1,06.1,0000.0,0000.24,0001.33,0000.17
2022-01-10 12:57:00,,0839.0,4.99,0.00,22.3,22.0,00.0,31.3,24.0,06.1,0000.0,0000.25,0001.34,0000.18
2022-01-10 12:58:00,,0839.0,4.99,0.00,22.3,21.8,00.0,31.3,24.0,06.1,0000.0,0000.26,0001.35,0000.18
2022-01-10 12:59:00,,0839.0,5.02,0.00,22.3,21.7,00.0,31.3,23.9,06.1,0000.0,0000.27,0001.38,0000.19
